This demonstration page uses our WeatherBlox Daily Observations layout. Learn more.

40.92945, -100.16068

Hourly Observations for June 13, 2017

Temp ( °F °C ) Dew Point ( °F °C ) Humidity (%) Winds ( mph kmh ) Pressure ( in mb ) Visibility ( mi km ) Precip ( " mm )
12:15 am 00:15 Clear 82 27.6 66 18.8 59 59 SSE 23 37 29.53 1000 10 16.0934 0 0
12:35 am 00:35 Clear 82 27.5 66 18.9 59 59 S 23 37 29.53 1000 10 16.0934 0 0
12:55 am 00:55 Clear 81 27.2 66 19 61 61 S 24 39 29.56 1001 10 16.0934 0 0
1:15 am 01:15 Clear 81 27 66 19 62 62 SSE 21 33 29.56 1001 10 16.0934 0 0
1:35 am 01:35 Clear 79 26.3 66 19 64 64 SSE 18 30 29.56 1001 10 16.0934 0 0
1:55 am 01:55 Clear 79 26 66 19.1 66 66 SSE 22 35 29.56 1001 10 16.0934 0 0
2:15 am 02:15 Clear 78 25.7 67 19.2 67 67 SSE 21 33 29.56 1001 10 16.0934 0 0
2:35 am 02:35 Clear 78 25.5 66 19.1 68 68 S 23 37 29.56 1001 10 16.0934 0 0
2:55 am 02:55 Clear 77 25.1 66 19 69 69 SSE 20 31 29.56 1001 10 16.0934 0 0
3:15 am 03:15 Clear 77 24.9 66 19 70 70 SSE 20 31 29.53 1000 10 16.0934 0 0
3:35 am 03:35 Clear 76 24.5 66 18.8 71 71 S 20 31 29.53 1000 10 16.0934 0 0
3:55 am 03:55 Clear 76 24.3 66 18.7 71 71 S 20 31 29.53 1000 10 16.0934 0 0
4:15 am 04:15 Clear 75 24 65 18.6 72 72 S 20 31 29.56 1001 10 16.0934 0 0
4:35 am 04:35 Clear 74 23.5 65 18.5 74 74 S 16 26 29.53 1000 10 16.0934 0 0
4:55 am 04:55 Clear 74 23.1 65 18.5 75 75 S 14 22 29.56 1001 10 16.0934 0 0
5:15 am 05:15 Clear 73 22.9 65 18.4 76 76 S 14 22 29.56 1001 10 16.0934 0 0
5:35 am 05:35 Clear 73 22.6 65 18.5 78 78 SSE 17 28 29.56 1001 10 16.0934 0 0
5:55 am 05:55 Clear 73 22.6 65 18.3 77 77 S 15 24 29.56 1001 10 16.0934 0 0
6:15 am 06:15 Sunny 73 22.6 65 18.3 77 77 S 15 24 29.59 1002 10 16.0934 0 0
6:35 am 06:35 Sunny 73 22.6 65 18.4 77 77 S 14 22 29.59 1002 10 16.0934 0 0
6:55 am 06:55 Sunny 73 22.5 65 18.5 78 78 S 14 22 29.59 1002 10 16.0934 0 0
7:15 am 07:15 Sunny 73 22.7 65 18.5 77 77 S 15 24 29.59 1002 10 16.0934 0 0
7:35 am 07:35 Sunny 73 22.8 65 18.6 77 77 S 18 30 29.56 1001 10 16.0934 0 0
7:55 am 07:55 Sunny 74 23.2 66 18.7 76 76 S 17 28 29.56 1001 10 16.0934 0 0
8:15 am 08:15 Sunny 75 23.7 66 19 75 75 S 14 22 29.53 1000 10 16.0934 0 0
8:35 am 08:35 Sunny 76 24.2 66 19 73 73 S 15 24 29.56 1001 10 16.0934 0 0
8:55 am 08:55 Sunny 76 24.7 66 19 71 71 S 14 22 29.56 1001 10 16.0934 0 0
9:15 am 09:15 Sunny 77 25.2 67 19.2 69 69 S 17 28 29.53 1000 10 16.0934 0 0
9:35 am 09:35 Sunny 78 25.7 67 19.2 67 67 S 22 35 29.53 1000 10 16.0934 0 0
9:55 am 09:55 Sunny 79 26.1 66 19 65 65 SSW 22 35 29.53 1000 10 16.0934 0 0
10:15 am 10:15 Sunny 80 26.5 66 18.9 63 63 SSW 12 19 29.53 1000 10 16.0934 0 0
10:35 am 10:35 Sunny 81 27.2 66 19.1 61 61 SSW 13 20 29.5 999 10 16.0934 0 0
10:55 am 10:55 Sunny 82 27.6 66 19 59 59 SSW 13 20 29.5 999 10 16.0934 0 0
11:15 am 11:15 Sunny 83 28.1 67 19.2 58 58 S 14 22 29.5 999 10 16.0934 0 0
11:35 am 11:35 Sunny 84 28.7 66 18.7 55 55 S 15 24 29.5 999 10 16.0934 0 0
11:55 am 11:55 Sunny 84 29.1 65 18.5 53 53 S 14 22 29.5 999 10 16.0934 0 0
12:15 pm 12:15 Sunny 85 29.5 65 18.1 50 50 S 14 22 29.5 999 10 16.0934 0 0
12:35 pm 12:35 Sunny 87 30.3 65 18.4 49 49 S 18 30 29.47 998 10 16.0934 0 0
12:55 pm 12:55 Sunny 87 30.8 64 18 46 46 S 15 24 29.44 997 10 16.0934 0 0
1:15 pm 13:15 Sunny 88 31.2 65 18.1 46 46 S 15 24 29.44 997 10 16.0934 0 0
1:35 pm 13:35 Sunny 89 31.7 63 17.2 42 42 S 15 24 29.44 997 10 16.0934 0 0
1:55 pm 13:55 Sunny 90 32.2 63 17.1 40 40 S 21 33 29.44 997 10 16.0934 0 0
2:15 pm 14:15 Sunny 91 32.7 61 16.3 37 37 S 22 35 29.41 996 10 16.0934 0 0
2:35 pm 14:35 Sunny 92 33.6 57 13.8 30 30 S 17 28 29.41 996 10 16.0934 0 0
2:55 pm 14:55 Sunny 93 34 52 11.1 25 25 SSW 15 24 29.38 995 10 16.0934 0 0
3:15 pm 15:15 Sunny 93 34 51 10.8 24 24 SSW 20 31 29.38 995 10 16.0934 0 0
3:35 pm 15:35 Sunny 94 34.2 52 11.1 24 24 SSW 24 39 29.38 995 10 16.0934 0 0
3:55 pm 15:55 Partly Cloudy 93 34 51 10.8 24 24 SW 25 41 29.44 997 10 16.0934 0 0
4:15 pm 16:15 Sunny 94 34.3 51 10.3 23 23 WSW 22 35 29.38 995 10 16.0934 0 0
4:35 pm 16:35 Sunny 94 34.2 51 10.7 24 24 SW 23 37 29.38 995 10 16.0934 0 0
4:55 pm 16:55 Sunny 93 34 49 9.5 22 22 SW 24 39 29.38 995 10 16.0934 0 0
5:15 pm 17:15 Sunny 93 34 48 8.7 21 21 SW 28 44 29.44 997 10 16.0934 0 0
5:35 pm 17:35 Sunny 93 34 45 7 19 19 WSW 21 33 29.38 995 10 16.0934 0 0
5:55 pm 17:55 Sunny 92 33.6 49 9.7 23 23 WSW 18 30 29.44 997 10 16.0934 0 0
6:15 pm 18:15 Sunny 92 33.6 48 8.9 22 22 SW 18 30 29.44 997 10 16.0934 0 0
6:35 pm 18:35 Sunny 92 33.2 46 7.6 20 20 WSW 16 26 29.44 997 10 16.0934 0 0
6:55 pm 18:55 Sunny 91 33 42 5.6 18 18 W 21 33 29.44 997 10 16.0934 0 0
7:15 pm 19:15 Sunny 91 32.5 41 4.9 18 18 W 17 28 29.41 996 10 16.0934 0 0
7:35 pm 19:35 Sunny 89 31.7 43 6.1 20 20 W 18 30 29.41 996 10 16.0934 0 0
7:55 pm 19:55 Sunny 87 30.7 42 5.8 21 21 W 14 22 29.41 996 10 16.0934 0 0
8:15 pm 20:15 Sunny 84 28.9 47 8.2 27 27 NW 9 15 29.44 997 10 16.0934 0 0
8:35 pm 20:35 Sunny 80 26.6 49 9.7 35 35 NW 7 11 29.44 997 10 16.0934 0 0
8:55 pm 20:55 Sunny 78 25.8 49 9.6 36 36 NNW 5 7 29.47 998 10 16.0934 0 0
9:15 pm 21:15 Clear 76 24.2 51 10.5 42 42 SE 3 6 29.47 998 10 16.0934 0 0
9:35 pm 21:35 Clear 72 22.3 52 10.9 49 49 Calm 29.5 999 10 16.0934 0 0
9:55 pm 21:55 Clear 71 21.5 52 11.3 52 52 ESE 9 15 29.5 999 10 16.0934 0 0
10:15 pm 22:15 Clear 74 23.5 51 10.7 45 45 ESE 7 11 29.53 1000 10 16.0934 0 0
10:35 pm 22:35 Clear 71 21.7 53 11.5 52 52 ENE 9 15 29.59 1002 10 16.0934 0 0
10:55 pm 22:55 Clear 73 23 57 14.1 57 57 NE 7 11 29.59 1002 10 16.0934 0 0
11:15 pm 23:15 Clear 71 21.4 58 14.7 66 66 E 6 9 29.59 1002 10 16.0934 0 0
11:35 pm 23:35 Clear 74 23.4 55 12.8 51 51 SE 8 13 29.59 1002 10 16.0934 0 0
11:55 pm 23:55 Clear 72 22.2 56 13.1 56 56 Calm 29.59 1002 10 16.0934 0 0

Powered by AerisWeather